NOAA 16 DEB, 41539

Orbit data source: Space-Track

NOAA 16 DEB, 41539 is space debris in SSO originally from a launch on Thu, 21 Sep 2000 UTC launched from the Air Force Western Test Range (AFWTR). Debris objects in space refer to the collection of defunct objects orbiting the Earth. Examples of debris include non-operational satellites, rocket bodies, and fragments generated from explosions, collisions, or faulty payload assembly.

Loading next visibility...
Identifier
41539, 2000-055NP
Orbit
SSO
Country
Flag of USUS
Related business
Manufacturer
Unknown
Mission
Spacecraft
Bus & Motor
Unknown
Mass
Unknown
Launch date (UTC)
2000-09-21 (25 years ago)
Launch vehicle
Unknown
Launch site
Air Force Western Test Range (AFWTR)
Object type
Payload
Rocket body
Debris
Shape & HBR
Unknown shape, 0.1 m
Radar Cross Section
Small (<0.1 m²)

Expand to show TLE details & history
Last TLE update: 19 hours ago

TLE from 19 hours ago
0 NOAA 16 DEB
1 41539U 00055NP  25299.31547242  .00010749  00000-0  29736-2 0  9997
2 41539  98.8183  66.9204 0019041  85.6481 274.6885 14.46739714504684
Epoch: 2025-10-26T07:34Z
TLE epoch observation values (Epoch: 2025-10-26T07:34:16.817Z)
Latitude
-0°
Longitude
-81.5831°
Altitude
738.183 km
Speed
7.486 km/s
True Right ascension
04h 27m 40s
True Declination
0° 00' 00"
Sunlit
Object was in full shadow at epoch
Visualization orbit readout
Latitude
Unknown
Longitude
Unknown
Altitude
Unknown
Speed
Unknown
Apparent Right ascension
Unknown
Apparent Declination
Unknown
Sunlit
N/A
Visualization observer readout
Local Sidereal Time
21:56:12
Azimuth
Unknown
Elevation
Unknown
Doppler factor
Unknown
Orbital elements
Apogee altitude
746.986 km
Perigee altitude
719.904 km
Semi-major axis
7,111.582 km
Eccentricity
0.0019
Inclination
98.8183°
RAAN
66.9204°
Arg. of periapsis
85.6481°
True anomaly
274.47099°
Mean anomaly
274.6885°
Eccentric anomaly
274.57975°
Mean motion
3.61904 °/min
Orbital period
99.47 mins
BSTAR
0.0029736
Loading maneuver chart data...
Computing Atmospheric mass density...
Loading historical data...
Loading historical data...
Loading historical data...
Loading historical data...
Loading historical data...
Loading historical data...
Loading historical data...

Documentation

Showing up to 5 results
|